This demonstration page uses our WeatherBlox Daily Observations layout. Learn more.

Left ArrowRight Arrow

Hourly Observations for August 30, 2020

Temp ( °F °C ) Dew Point ( °F °C ) Humidity (%) Winds ( mph kmh ) Pressure ( in mb ) Visibility ( mi km ) Precip ( " mm )
12:54 am 00:54 Clear 58 14.4 52 11.1 81 81 NNW 6 9 29.9 1013 9 14.48406 0 0
1:54 am 01:54 Clear 52 11.1 48 8.9 86 86 Calm 29.92 1013 9 14.48406 0 0
2:54 am 02:54 Clear 54 12.2 49 9.4 83 83 Calm 29.9 1012 9 14.48406 0 0
3:54 am 03:54 Clear 54 12.2 49 9.4 83 83 NNW 3 6 29.88 1012 9 14.48406 0 0
4:54 am 04:54 Clear 53 11.7 49 9.4 86 86 NW 3 6 29.86 1011 10 16.0934 0 0
5:54 am 05:54 Clear 54 12.2 50 10 87 87 W 3 6 29.85 1011 10 16.0934 0 0
6:54 am 06:54 Sunny 50 10 47 8.3 89 89 NNE 5 7 29.86 1011 9 14.48406 0 0
7:54 am 07:54 Sunny 57 13.9 49 9.4 74 74 Calm 29.87 1012 9 14.48406 0 0
8:54 am 08:54 Sunny 61 16.1 54 12.2 78 78 S 6 9 29.85 1011 9 14.48406 0 0
9:54 am 09:54 Sunny 67 19.4 56 13.3 68 68 S 10 17 29.83 1010 9 14.48406 0 0
10:54 am 10:54 Sunny 74 23.3 58 14.4 57 57 SSE 15 24 29.82 1010 9 14.48406 0 0
11:54 am 11:54 Sunny 76 24.4 57 13.9 52 52 S 16 26 29.78 1009 9 14.48406 0 0
12:54 pm 12:54 Sunny 79 26.1 58 14.4 49 49 S 14 22 29.76 1008 9 14.48406 0 0
1:54 pm 13:54 Sunny 82 27.8 59 15 46 46 S 16 26 29.74 1007 9 14.48406 0 0
2:54 pm 14:54 Sunny 83 28.3 58 14.4 43 43 S 16 26 29.69 1006 9 14.48406 0 0
3:54 pm 15:54 Sunny 84 28.9 60 15.6 44 44 SSE 17 28 29.67 1005 9 14.48406 0 0
4:54 pm 16:54 Sunny 84 28.9 61 16.1 46 46 S 13 20 29.65 1004 9 14.48406 0 0
5:54 pm 17:54 Sunny 84 28.9 61 16.1 46 46 S 13 20 29.64 1004 9 14.48406 0 0
6:54 pm 18:54 Mostly Sunny 83 28.3 62 16.7 49 49 SSE 10 17 29.63 1003 9 14.48406 0 0
7:54 pm 19:54 Sunny 79 26.1 63 17.2 58 58 SSE 12 19 29.62 1003 9 14.48406 0 0
8:54 pm 20:54 Clear 76 24.4 63 17.2 64 64 S 9 15 29.63 1004 10 16.0934 0 0
9:54 pm 21:54 Mostly Cloudy 73 22.8 63 17.2 71 71 S 6 9 29.67 1005 10 16.0934 0 0
10:54 pm 22:54 Clear 73 22.8 64 17.8 74 74 SSE 9 15 29.65 1004 10 16.0934 0 0
11:54 pm 23:54 Mostly Clear 72 22.2 65 18.3 79 79 S 9 15 29.66 1004 10 16.0934 0 0

Powered by AerisWeather